Dewpoint
55 55 55 56 56 57 56 56 57 57 57 56 56 56 56 56 56 56 56 56 56 56 56 56 56 56 56 56 56 56 55 55 55 55 55 55 55 54 53 53 52 51 51 51 51 51 50 50 50 49 50 50 50 49 48 47 47 47 46 46 46 46 46 46 44 44 44 44 43
55 55 55 55 56 56 57 57 57 57 57 57 57 57 57 57 56 56 56 56 56 56 56 56 56 56 56 56 56 56 55 55 55 55 55 54 54 54 53 52 52 52 52 52 52 51 50 50 49 50 50 50 50 50 49 48 48 48 48 48 48 48 47 47 47 47 47 46 44
54 55 55 55 56 56 56 56 56 57 57 57 57 57 57 57 56 56 56 57 57 57 57 56 56 56 56 56 56 56 55 55 55 55 55 54 54 54 53 52 52 52 52 52 51 50 50 50 50 50 50 50 50 50 50 50 50 50 49 49 49 48 48 47 48 48 47 47 46
54 54 55 55 55 56 56 56 56 57 57 57 57 57 57 57 57 57 57 57 57 57 56 56 56 56 56 56 56 56 56 55 55 55 55 55 55 54 54 53 53 53 52 51 51 51 51 51 51 51 50 51 51 50 50 51 50 50 49 49 49 47 46 46 47 46 46 46 46
54 54 55 55 55 55 56 56 56 56 56 57 57 57 57 56 56 56 57 57 56 56 57 56 56 56 56 56 56 56 56 56 55 55 55 55 55 55 55 54 54 53 53 53 54 53 52 52 51 51 51 52 52 52 53 52 50 49 48 48 47 46 46 46 46 45 45 46 46
54 54 55 55 55 55 55 56 56 56 56 56 56 56 56 56 56 56 57 56 56 57 57 57 56 56 56 56 56 56 56 56 56 55 55 55 56 55 55 54 53 53 53 54 54 53 51 51 51 51 52 52 52 52 52 51 49 48 47 47 46 46 46 45 44 44 44 44 43
54 54 54 55 55 55 56 56 56 56 56 56 56 56 56 56 56 56 56 56 56 57 57 57 56 56 56 56 56 56 56 56 55 56 56 56 56 55 55 54 53 53 53 53 53 52 52 52 52 52 52 51 51 50 50 48 48 47 47 46 46 45 44 44 44 43 43 42 41
54 55 55 55 55 55 56 56 56 56 56 56 56 56 56 57 57 57 56 56 56 56 56 56 56 56 56 56 56 56 56 55 55 56 57 58 57 56 55 54 53 52 52 52 52 52 52 53 52 52 51 50 50 49 48 47 47 47 47 47 46 45 44 43 42 42 42 41 39
55 55 55 56 56 56 56 56 56 56 56 56 56 56 57 57 57 56 56 56 56 56 56 56 56 56 56 56 56 56 55 55 55 55 56 57 57 57 56 54 53 52 52 51 52 51 51 51 51 51 50 50 50 49 48 47 47 46 46 47 46 45 44 43 42 41 41 40 38
55 55 56 56 56 56 56 57 57 57 56 56 56 57 57 57 57 56 56 56 56 56 56 56 56 56 56 56 56 55 55 55 55 55 55 56 56 55 55 54 53 53 53 52 51 51 50 50 50 50 50 50 49 48 47 47 47 46 46 46 46 44 43 43 42 41 41 40 38
55 55 56 56 57 57 57 57 57 57 57 57 57 57 57 57 57 56 56 56 56 56 56 56 56 56 56 56 56 56 55 55 55 55 55 55 55 55 54 54 53 53 53 52 51 50 50 50 50 49 49 49 48 47 46 46 46 46 46 46 45 44 42 42 41 41 41 41 39
55 56 56 56 57 57 57 57 57 56 57 57 57 57 57 57 57 56 56 56 56 56 56 56 56 56 56 56 56 56 56 56 55 55 55 55 54 54 53 53 52 52 51 50 50 50 50 49 49 49 48 48 47 46 46 46 46 45 45 45 44 43 42 41 41 41 41 40 39
55 56 56 57 57 57 57 57 56 56 56 56 56 56 56 56 57 57 56 56 56 56 56 56 56 56 56 56 56 56 56 56 55 55 54 54 54 53 53 52 51 51 50 49 49 49 49 48 49 48 48 47 46 46 46 46 45 45 45 45 44 43 42 41 40 40 40 40 38
55 56 56 57 57 57 57 57 56 56 56 56 56 56 56 56 57 57 56 56 56 55 55 55 56 56 56 56 56 56 55 55 55 54 54 53 53 52 52 51 51 50 50 49 48 49 49 48 49 49 48 47 46 46 46 46 45 46 46 46 46 44 41 40 39 39 39 39 39
55 56 56 57 57 56 56 56 56 56 56 57 57 56 56 56 56 56 56 56 55 55 55 55 55 55 56 56 55 55 55 54 54 53 53 52 52 52 52 51 51 50 50 49 48 49 49 49 48 48 48 48 47 47 46 46 46 46 46 46 46 44 41 41 39 39 39 39 39
55 55 56 56 56 56 56 56 56 56 56 56 56 56 56 56 56 56 56 55 55 55 55 55 55 55 55 55 55 54 53 53 53 52 52 52 52 51 51 51 50 50 50 50 49 48 48 48 48 48 48 49 49 48 47 46 46 46 46 46 45 44 43 42 41 41 41 40 39
55 55 55 55 55 56 56 56 56 56 56 56 56 56 56 56 56 56 55 55 55 55 54 55 55 55 55 55 54 54 53 53 52 52 52 52 51 51 51 50 50 50 50 50 49 48 47 48 47 48 49 50 49 48 47 46 46 46 46 46 45 44 44 43 42 41 41 41 40
55 55 55 55 55 55 56 56 56 56 56 56 56 56 56 56 55 55 55 55 55 54 54 54 54 54 54 54 54 54 53 52 52 52 52 51 51 50 50 50 50 50 50 50 48 47 46 47 47 47 48 49 49 48 47 46 46 46 45 45 44 44 44 43 42 41 41 41 41
54 55 55 55 55 55 56 56 56 56 56 56 56 56 56 55 55 55 55 55 54 54 54 54 54 54 54 54 54 53 53 52 52 51 51 50 50 50 50 50 50 50 50 50 48 47 46 46 46 46 46 47 47 47 47 46 46 45 45 45 44 44 43 43 42 41 41 41 41
54 55 55 55 55 55 55 55 55 55 56 56 56 55 55 55 55 55 55 54 54 54 54 54 54 54 54 53 53 52 52 51 51 51 50 50 50 50 50 50 50 51 51 50 48 47 47 46 46 46 46 47 46 46 46 45 44 44 44 44 44 43 43 42 41 40 40 40 41
54 54 55 55 55 55 55 55 55 55 55 55 55 55 55 55 54 54 54 54 54 54 54 54 54 53 53 52 52 51 51 51 51 51 50 50 50 50 50 50 50 51 51 50 49 48 47 46 46 46 46 46 46 45 44 43 42 43 43 43 42 42 42 41 40 39 39 40 41
54 54 55 55 55 55 55 55 55 55 55 55 55 55 54 54 54 54 54 54 54 54 54 54 54 53 52 51 51 50 50 50 50 50 50 50 49 49 49 49 50 50 50 50 49 48 48 47 47 47 47 46 46 45 45 42 42 42 42 41 41 41 41 40 39 39 39 40 41
54 54 55 55 55 55 55 55 55 54 54 54 54 54 54 54 54 54 54 53 54 54 54 53 53 52 51 50 50 50 50 50 50 49 49 48 48 48 48 48 49 50 50 50 49 49 49 48 48 48 47 45 45 45 44 42 42 42 42 41 41 41 40 40 39 39 39 39 39
54 54 54 54 54 54 54 54 54 53 53 53 53 53 53 53 53 53 53 52 53 52 52 51 51 50 50 50 50 49 49 49 48 47 47 46 47 47 47 46 48 49 50 50 48 48 49 48 47 46 46 44 44 44 43 44 43 43 42 41 41 40 40 39 39 39 39 39 38
53 54 54 54 54 53 53 53 53 53 53 53 53 52 52 52 52 51 51 51 51 51 50 50 50 49 49 49 49 49 49 48 47 47 46 46 46 46 46 46 46 47 47 49 46 46 46 46 46 45 44 43 42 42 42 44 42 41 41 41 40 40 39 39 39 39 38 38 38
53 53 53 53 53 53 52 52 52 52 52 52 52 52 51 51 51 50 50 50 50 50 49 49 49 49 50 50 49 49 48 47 46 46 46 46 45 45 45 45 45 45 46 46 45 46 46 45 44 44 44 44 43 42 42 42 41 41 41 40 40 40 39 39 38 38 38 37 37
52 52 52 52 52 52 52 52 52 52 51 51 51 51 50 50 50 50 49 49 48 48 48 48 49 49 50 49 49 48 47 46 46 46 46 45 45 45 45 44 43 44 45 45 45 45 45 45 44 44 43 43 44 44 43 41 41 42 42 41 41 40 39 38 38 37 37 37 36
51 51 51 52 52 52 51 51 51 51 50 50 50 50 49 49 49 48 48 47 47 47 47 47 48 48 48 47 46 46 45 45 45 45 45 45 45 44 44 44 44 45 45 44 45 45 45 45 45 44 43 42 44 44 44 42 42 41 41 41 41 41 40 39 37 37 36 36 36
50 50 51 50 50 50 50 50 50 50 50 50 49 48 48 48 47 47 46 46 46 46 46 46 46 46 45 44 44 44 44 44 44 44 44 44 44 43 43 43 43 43 44 44 45 45 46 45 45 44 43 42 42 43 43 42 41 41 40 40 40 40 40 39 39 38 37 36 36
50 50 50 50 49 49 49 49 49 49 48 48 47 47 47 46 46 46 46 45 45 45 45 44 44 44 43 42 42 43 43 43 43 43 44 43 43 42 41 42 42 43 43 44 45 45 45 45 45 44 43 42 41 42 43 42 41 41 40 39 39 39 39 39 39 38 37 36 35
50 50 49 49 48 48 48 48 47 47 47 47 46 46 46 46 46 45 44 44 43 43 43 44 43 42 42 42 42 42 42 43 43 43 42 41 41 41 41 41 41 42 43 44 45 45 45 45 45 44 43 42 41 41 42 41 40 40 40 39 39 39 39 39 39 38 37 37 35
49 49 48 48 47 47 46 46 46 46 46 46 46 46 45 45 44 44 43 43 42 42 43 43 42 42 41 41 41 41 41 41 41 41 41 41 40 40 40 40 40 41 43 44 44 45 45 45 45 44 44 43 41 41 41 40 39 39 39 39 39 39 39 38 38 38 37 37 35
48 48 47 47 46 46 46 46 46 46 46 46 46 45 44 43 43 42 42 41 42 42 42 42 41 41 41 40 40 40 40 39 39 40 40 40 40 39 38 38 38 40 42 44 44 44 45 45 45 45 44 44 42 41 40 39 37 37 37 37 38 38 38 38 37 37 37 37 35
47 47 46 46 46 45 45 46 46 46 45 45 44 43 42 42 42 41 41 41 41 41 41 41 40 40 39 39 39 39 39 38 38 39 39 39 39 38 37 37 38 39 41 43 44 44 44 44 44 45 45 44 41 40 38 37 36 36 36 36 36 37 37 37 37 37 37 37 35
46 46 45 45 45 45 45 45 45 44 44 43 42 42 42 42 41 40 39 39 38 38 38 37 37 37 37 38 39 38 38 37 37 37 37 37 37 37 37 37 38 39 41 42 43 44 44 44 44 45 44 43 41 39 38 37 35 34 34 35 35 35 36 37 37 37 37 37 35
46 45 45 44 44 44 44 44 43 43 42 41 41 41 41 41 40 39 38 37 37 37 36 36 36 37 37 37 37 37 36 36 36 36 36 37 36 36 36 36 37 38 39 41 41 42 43 43 44 44 43 41 40 38 37 35 34 33 32 33 33 34 34 35 36 37 37 37 36
45 45 44 44 44 43 43 43 42 41 41 40 40 40 40 39 38 37 37 37 36 36 36 35 35 35 35 35 35 35 35 35 35 34 34 35 35 35 35 36 37 37 38 39 40 41 42 43 43 43 42 41 40 38 37 35 34 33 32 32 32 33 34 35 36 37 37 37 37
44 44 44 43 43 43 42 42 41 40 40 39 39 39 38 37 37 37 37 37 36 35 35 35 34 34 34 34 34 34 34 34 33 33 33 33 34 34 34 34 36 37 38 40 40 40 41 42 43 42 41 40 39 38 37 36 34 33 32 32 32 33 34 35 35 36 37 37 36
44 43 43 43 42 42 41 41 40 39 39 39 38 37 37 36 36 35 36 36 35 34 34 33 33 33 33 33 32 32 33 33 33 32 32 32 33 34 34 34 36 37 39 41 41 41 41 43 43 42 41 40 39 38 37 36 35 34 34 34 34 34 35 36 36 37 37 38 36
43 42 42 42 41 41 40 39 38 38 38 38 37 36 35 35 34 34 34 34 34 33 32 32 32 32 32 32 32 32 32 32 33 33 33 33 33 34 34 34 36 37 39 41 41 42 42 43 43 42 41 40 40 38 37 37 37 36 36 36 36 36 37 37 37 37 37 38 37
42 41 41 41 40 39 38 37 37 37 37 37 36 35 34 33 32 32 32 32 32 32 32 32 32 32 32 32 32 32 32 32 33 33 33 33 33 34 34 35 36 37 39 41 43 43 43 44 43 41 41 40 40 39 38 38 38 37 37 37 37 37 37 37 37 37 37 37 38